Back to catalog

STARLINK-36717

AliveCommunicationsSSO
NORAD 67743·PAYLOAD·🇺🇸 United States

Launched Feb 11, 2026 from Vandenberg Space Force Base

Loading…

Next Passes (next 24 hours)

TLE

FreshSource: CelesTrak SupGP

Epoch: Sep 14, 2026, 23:09 UTC

1 67743C 26026Y   26257.96506944  .00039996  00000+0  12425-2 0  2576
2 67743  97.2843 309.9377 0001129  90.5580   5.3893 15.33396640    19

Track STARLINK-36717 in real time with AllMySat

Download on the App Store